• In Germany
  • List of Countries
  • For 7 days
  • Water Temperature
  • Satellite Maps
  • Weather Map
  • Weather Widgets
  • user-avatar
    Login

    Hourly Weather Al-Budajji

    Today, 21 July, Friday

    Time Temperature Precipitation Wind Pressure Humidity
    00:00 +40°C° 0 mm 5 mps 749 mmHg 61%
    01:00 +39°C° 0 mm 5 mps 749 mmHg 64%
    02:00 +40°C° 0 mm 5 mps 749 mmHg 63%
    03:00 +40°C° 0 mm 4 mps 749 mmHg 62%
    04:00 +40°C° 0 mm 4 mps 749 mmHg 61%
    05:00 +39°C° 0 mm 3 mps 749 mmHg 61%
    06:00 +39°C° 0 mm 3 mps 750 mmHg 60%
    07:00 +39°C° 0 mm 2 mps 750 mmHg 59%
    08:00 +39°C° 0 mm 3 mps 750 mmHg 61%
    09:00 +39°C° 0 mm 3 mps 750 mmHg 62%
    10:00 +39°C° 0 mm 3 mps 751 mmHg 64%
    11:00 +39°C° 0 mm 2 mps 751 mmHg 66%
    12:00 +39°C° 0 mm 2 mps 750 mmHg 68%
    13:00 +39°C° 0 mm 1 mps 750 mmHg 70%
    14:00 +39°C° 0 mm 1 mps 750 mmHg 70%
    15:00 +36°C° 0 mm 0 mps 750 mmHg 70%
    16:00 +36°C° 0 mm 0 mps 749 mmHg 70%
    17:00 +36°C° 0 mm 0 mps 749 mmHg 69%
    18:00 +39°C° 0 mm 1 mps 749 mmHg 68%
    19:00 +39°C° 0 mm 1 mps 749 mmHg 66%
    20:00 +39°C° 0 mm 1 mps 750 mmHg 65%
    21:00 +39°C° 0 mm 1 mps 750 mmHg 64%
    22:00 +39°C° 0 mm 1 mps 750 mmHg 63%
    23:00 +39°C° 0 mm 2 mps 750 mmHg 60%

    Tomorrow, 22 July, Saturday

    Time Temperature Precipitation Wind Pressure Humidity
    00:00 +39°C° 0 mm 3 mps 750 mmHg 58%
    01:00 +39°C° 0 mm 3 mps 750 mmHg 55%
    02:00 +39°C° 0 mm 3 mps 749 mmHg 56%
    03:00 +38°C° 0 mm 3 mps 749 mmHg 58%
    04:00 +38°C° 0 mm 3 mps 749 mmHg 59%
    05:00 +38°C° 0 mm 2 mps 749 mmHg 59%
    06:00 +38°C° 0 mm 2 mps 750 mmHg 60%
    07:00 +37°C° 0 mm 1 mps 750 mmHg 60%
    08:00 +39°C° 0 mm 2 mps 750 mmHg 59%
    09:00 +39°C° 0 mm 2 mps 750 mmHg 58%
    10:00 +39°C° 0 mm 2 mps 751 mmHg 57%
    11:00 +39°C° 0 mm 3 mps 751 mmHg 56%
    12:00 +39°C° 0 mm 3 mps 751 mmHg 55%
    13:00 +39°C° 0 mm 3 mps 751 mmHg 55%
    14:00 +39°C° 0 mm 3 mps 750 mmHg 55%
    15:00 +39°C° 0 mm 3 mps 750 mmHg 55%
    16:00 +39°C° 0 mm 3 mps 749 mmHg 55%
    17:00 +39°C° 0 mm 2 mps 749 mmHg 58%
    18:00 +39°C° 0 mm 2 mps 749 mmHg 60%
    19:00 +39°C° 0 mm 1 mps 749 mmHg 62%
    20:00 +39°C° 0 mm 1 mps 749 mmHg 63%
    21:00 +39°C° 0 mm 1 mps 749 mmHg 63%
    22:00 +39°C° 0 mm 1 mps 750 mmHg 63%
    23:00 +39°C° 0 mm 1 mps 749 mmHg 61%

    Day after tomorrow, 23 July, Sunday

    Time Temperature Precipitation Wind Pressure Humidity
    00:00 +39°C° 0 mm 1 mps 749 mmHg 59%
    01:00 +39°C° 0 mm 1 mps 749 mmHg 58%
    02:00 +39°C° 0 mm 1 mps 749 mmHg 58%
    03:00 +39°C° 0 mm 1 mps 749 mmHg 58%
    04:00 +38°C° 0 mm 2 mps 748 mmHg 58%
    05:00 +37°C° 0 mm 1 mps 749 mmHg 59%
    06:00 +37°C° 0 mm 1 mps 749 mmHg 60%
    07:00 +37°C° 0 mm 1 mps 749 mmHg 60%
    08:00 +39°C° 0 mm 1 mps 750 mmHg 59%
    09:00 +39°C° 0 mm 2 mps 750 mmHg 58%
    10:00 +39°C° 0 mm 2 mps 750 mmHg 56%
    11:00 +39°C° 0 mm 2 mps 750 mmHg 57%
    12:00 +39°C° 0 mm 2 mps 750 mmHg 57%
    13:00 +39°C° 0 mm 2 mps 750 mmHg 57%
    14:00 +39°C° 0 mm 1 mps 749 mmHg 58%
    15:00 +39°C° 0 mm 1 mps 749 mmHg 60%
    16:00 +39°C° 0 mm 1 mps 748 mmHg 61%
    17:00 +39°C° 0 mm 1 mps 748 mmHg 62%
    18:00 +39°C° 0 mm 1 mps 748 mmHg 62%
    19:00 +39°C° 0 mm 1 mps 748 mmHg 62%
    20:00 +39°C° 0 mm 1 mps 749 mmHg 59%
    21:00 +39°C° 0 mm 2 mps 749 mmHg 56%
    22:00 +39°C° 0 mm 2 mps 749 mmHg 53%
    23:00 +39°C° 0 mm 2 mps 749 mmHg 53%

    24 July, Monday

    Time Temperature Precipitation Wind Pressure Humidity
    00:00 +39°C° 0 mm 2 mps 749 mmHg 53%
    01:00 +39°C° 0 mm 3 mps 749 mmHg 53%
    02:00 +39°C° 0 mm 3 mps 748 mmHg 54%
    03:00 +39°C° 0 mm 3 mps 748 mmHg 55%
    04:00 +39°C° 0 mm 3 mps 748 mmHg 57%
    05:00 +39°C° 0 mm 3 mps 748 mmHg 57%
    06:00 +39°C° 0 mm 3 mps 749 mmHg 57%
    07:00 +38°C° 0 mm 3 mps 749 mmHg 57%
    08:00 +38°C° 0 mm 4 mps 749 mmHg 58%
    09:00 +38°C° 0 mm 4 mps 749 mmHg 60%
    10:00 +39°C° 0 mm 5 mps 750 mmHg 61%
    11:00 +40°C° 0 mm 4 mps 750 mmHg 62%
    12:00 +39°C° 0 mm 2 mps 749 mmHg 64%
    13:00 +39°C° 0 mm 1 mps 749 mmHg 65%
    14:00 +39°C° 0 mm 2 mps 749 mmHg 63%
    15:00 +39°C° 0 mm 2 mps 748 mmHg 61%
    16:00 +39°C° 0 mm 2 mps 748 mmHg 59%
    17:00 +39°C° 0 mm 2 mps 748 mmHg 60%
    18:00 +39°C° 0 mm 3 mps 748 mmHg 61%
    19:00 +39°C° 0 mm 3 mps 748 mmHg 61%
    20:00 +39°C° 0 mm 3 mps 748 mmHg 60%
    21:00 +39°C° 0 mm 3 mps 749 mmHg 59%
    22:00 +39°C° 0 mm 3 mps 749 mmHg 58%
    23:00 +39°C° 0 mm 3 mps 749 mmHg 57%

    25 July, Tuesday

    Time Temperature Precipitation Wind Pressure Humidity
    00:00 +39°C° 0 mm 3 mps 748 mmHg 55%
    01:00 +39°C° 0 mm 3 mps 748 mmHg 54%
    02:00 +39°C° 0 mm 3 mps 748 mmHg 55%
    03:00 +39°C° 0 mm 2 mps 748 mmHg 56%
    04:00 +39°C° 0 mm 2 mps 748 mmHg 57%
    05:00 +39°C° 0 mm 2 mps 748 mmHg 56%
    06:00 +39°C° 0 mm 3 mps 748 mmHg 55%
    07:00 +39°C° 0 mm 3 mps 749 mmHg 54%
    08:00 +40°C° 0 mm 4 mps 749 mmHg 56%
    09:00 +40°C° 0 mm 4 mps 749 mmHg 57%
    10:00 +40°C° 0 mm 4 mps 750 mmHg 59%
    11:00 +39°C° 0 mm 3 mps 749 mmHg 61%
    12:00 +39°C° 0 mm 3 mps 749 mmHg 63%
    13:00 +39°C° 0 mm 2 mps 749 mmHg 64%
    14:00 +39°C° 0 mm 2 mps 748 mmHg 63%
    15:00 +39°C° 0 mm 2 mps 748 mmHg 62%
    16:00 +39°C° 0 mm 2 mps 748 mmHg 61%
    17:00 +39°C° 0 mm 2 mps 748 mmHg 61%
    18:00 +39°C° 0 mm 2 mps 748 mmHg 61%
    19:00 +39°C° 0 mm 3 mps 748 mmHg 61%
    20:00 +39°C° 0 mm 2 mps 748 mmHg 59%
    21:00 +39°C° 0 mm 2 mps 748 mmHg 58%
    22:00 +39°C° 0 mm 2 mps 749 mmHg 57%
    23:00 +39°C° 0 mm 2 mps 748 mmHg 55%

    26 July, Wednesday

    Time Temperature Precipitation Wind Pressure Humidity
    00:00 +39°C° 0 mm 3 mps 748 mmHg 53%
    01:00 +40°C° 0 mm 3 mps 748 mmHg 52%
    02:00 +39°C° 0 mm 3 mps 748 mmHg 53%
    03:00 +39°C° 0 mm 3 mps 748 mmHg 55%
    04:00 +39°C° 0 mm 2 mps 748 mmHg 57%
    05:00 +39°C° 0 mm 3 mps 748 mmHg 56%
    06:00 +39°C° 0 mm 3 mps 749 mmHg 55%
    07:00 +40°C° 0 mm 4 mps 749 mmHg 54%
    08:00 +40°C° 0 mm 4 mps 750 mmHg 56%
    09:00 +40°C° 0 mm 4 mps 750 mmHg 57%
    10:00 +40°C° 0 mm 5 mps 750 mmHg 59%
    11:00 +40°C° 0 mm 4 mps 750 mmHg 62%
    12:00 +39°C° 0 mm 3 mps 750 mmHg 66%
    13:00 +39°C° 0 mm 2 mps 749 mmHg 69%
    14:00 +39°C° 0 mm 2 mps 749 mmHg 67%
    15:00 +39°C° 0 mm 2 mps 749 mmHg 64%
    16:00 +40°C° 0 mm 2 mps 749 mmHg 62%
    17:00 +39°C° 0 mm 2 mps 749 mmHg 62%
    18:00 +39°C° 0 mm 3 mps 749 mmHg 61%
    19:00 +39°C° 0 mm 3 mps 749 mmHg 61%
    20:00 +39°C° 0 mm 3 mps 749 mmHg 61%
    21:00 +39°C° 0 mm 2 mps 749 mmHg 60%
    22:00 +39°C° 0 mm 2 mps 749 mmHg 60%
    23:00 +39°C° 0 mm 3 mps 749 mmHg 59%
    Show more